[[{"header":{"parameterUnit":"m.s-1","parameterCategory":1,"la1":30.2991,"la2":30.254,"lo1":-89.0895,"lo2":-89.0444,"dy":0.0017,"dx":0.0017,"nx":28,"ny":28,"refTime":"2025-04-10T09:00:00:Z","depth":0,"parameterNumber":2,"parameterNumberName":"U-component_of_WINDS"},"data":[0,0,0,0,0,0,0,0,0,0,0,0,0,0,0,0,0,0,0,0,0,0,0,0,0,0,0,0,0,0,0,0,0,0,0,0,0,0,0,0,0,0,0,0,0,0,0,0,0,0,0,0,0,0,0,0,0,0,2.7059,2.706,0,2.7203,2.7204,2.7206,2.7122,2.7118,2.7114,2.711,2.7263,2.727,2.7278,0,0,0,0,0,0,0,0,0,0,0,0,0,2.6717,2.6724,2.7058,2.706,2.7062,2.7202,2.7204,2.7206,2.7123,2.7118,2.7113,2.7108,2.726,2.7269,2.7279,0,0,0,0,0,0,0,0,0,0,0,0,0,2.6864,2.6726,2.7058,2.7037,2.7037,2.7202,2.7204,2.7207,2.7124,2.7118,2.7112,2.7106,2.7257,2.7269,2.728,2.7476,0,0,2.7316,2.7321,0,0,0,0,0,0,0,0,2.6856,2.6877,2.7039,2.7039,2.7039,2.7138,2.714,2.7297,2.7125,2.7091,2.711,2.7103,2.7227,2.724,2.7281,2.7483,2.7489,2.7317,2.7324,2.733,2.7333,0,0,0,0,0,0,0,2.6846,2.687,2.7116,2.7041,2.7041,2.7023,2.7037,2.7169,2.7192,2.7093,2.7088,2.7106,2.7225,2.727,2.7284,2.7492,2.7317,2.7327,2.7335,2.7339,2.7864,2.787,0,0,0,0,0,0,2.6836,2.6862,2.7111,2.712,2.693,2.7034,2.7049,2.7112,2.719,2.7196,2.7111,2.7101,2.7253,2.727,2.7289,2.7525,2.7329,2.7341,2.7347,2.7857,2.7865,2.7873,0,0,0,0,0,0,2.6829,2.6859,2.7105,2.6989,2.7019,2.7046,2.7118,2.7118,2.7163,2.7203,2.7207,2.7152,2.7249,2.7272,2.743,2.7529,2.7346,2.7357,2.7849,2.786,2.7869,2.7998,0,0,0,0,0,0,2.682,2.6857,2.693,2.6992,2.7026,2.7243,2.7123,2.7126,2.7183,2.7172,2.7242,2.7248,2.7246,2.7413,2.7442,2.7542,2.7366,2.784,2.7854,2.7866,2.7985,2.8011,2.8033,0,0,0,0,0,2.6808,2.6961,2.6934,2.6965,2.7117,2.7248,2.7268,2.726,2.7191,2.7266,2.7292,2.7246,2.7513,2.743,2.7462,2.7567,2.7834,2.785,2.7865,2.7974,2.8006,2.8033,0,0,0,0,0,0,2.6912,2.6969,2.694,2.7117,2.7179,2.7234,2.7328,2.7294,2.7378,2.7364,2.7353,2.737,2.7534,2.7566,2.7472,2.7762,2.7663,2.7686,2.7735,2.7766,2.779,2.778,2.7376,0,0,0,0,0,2.6956,2.7055,2.71,2.7253,2.7285,2.7301,2.7358,2.7347,2.7411,2.7437,2.7474,2.7539,2.7638,2.7703,2.7796,2.7988,2.8004,2.8077,2.8101,2.8121,2.8141,2.8248,2.8281,2.7923,2.7923,2.7923,0,0,2.7047,2.709,2.7154,2.7275,2.7321,2.7427,2.7324,2.7439,2.7519,2.7455,2.7606,2.7636,2.7708,2.7884,2.7964,2.7916,2.8243,2.814,2.8156,2.8166,2.8267,2.8301,2.8331,2.7934,2.7932,2.793,0,0,2.7268,2.731,2.7442,2.7491,2.7561,2.7571,2.7603,2.7664,2.7682,2.7833,2.7788,2.7882,2.8052,2.8106,2.8155,2.8398,2.836,2.8429,2.8557,2.8661,2.869,2.8715,2.8804,2.8836,2.8448,2.8449,2.8449,0,2.7374,2.7529,2.7515,2.7635,2.7691,2.7636,2.7772,2.782,2.7918,2.7959,2.7903,2.8116,2.816,2.835,2.8409,2.845,2.8489,2.8422,2.8686,2.8711,2.8734,2.8819,2.8853,2.8457,2.8456,2.8455,2.8454,0,2.7657,2.7765,2.7864,2.796,2.8026,2.8153,2.8161,2.823,2.8213,2.823,2.8387,2.8438,2.8541,2.8585,2.857,2.8774,2.8742,2.8686,2.8588,2.8777,2.8857,2.8889,2.8468,2.8465,2.8463,2.8461,0,0,2.7949,2.8034,2.8071,2.8115,2.8189,2.8274,2.84,2.8499,2.856,2.863,2.8737,2.8882,2.8832,2.8888,2.8879,2.897,2.9162,2.8904,2.8905,2.8952,2.9393,2.9436,2.9473,2.9137,2.9143,2.9148,2.9388,0,2.8176,2.8394,2.8386,2.859,2.8692,2.8642,2.8752,2.8811,2.883,2.8921,2.8942,2.9047,2.8971,2.9005,2.9093,2.912,2.9251,2.9103,2.9239,2.9244,2.9225,2.9514,2.956,2.9784,2.9418,2.9424,2.9427,0,2.8471,2.855,2.8764,2.8825,2.8867,2.8966,2.9058,2.9144,2.9211,2.9218,2.9282,2.9259,2.9388,2.9285,2.9465,2.9365,2.942,2.9442,2.945,2.9465,2.9349,2.9539,2.9855,2.9889,2.9476,2.9472,2.9468,0,2.8666,2.8825,2.8975,2.9013,2.9087,2.9158,2.9192,2.9252,2.9313,2.9394,2.9434,2.9529,2.9582,2.9657,2.9661,2.9585,2.9845,2.9741,2.9857,2.9858,2.9916,2.9913,3.0248,2.9948,2.9947,2.9947,2.9946,0,2.8922,2.9056,2.9063,2.9156,2.9305,2.9295,2.9443,2.9471,2.9525,2.9624,2.9586,2.9679,2.9677,2.9774,2.9777,2.9928,2.9952,2.9964,2.9963,2.9968,2.9967,3.0006,2.9992,2.9956,2.9954,2.9952,2.995,0,2.9166,2.9176,2.9336,2.9392,2.9409,2.9517,2.9567,2.9656,2.9671,2.9796,2.9825,2.9851,2.9962,2.9972,3.0102,3.0104,3.0287,3.0269,3.0265,3.0263,3.038,3.0369,3.0753,3.0804,3.0469,3.0472,3.0475,0,2.933,2.9432,2.9499,2.9561,2.96,2.9701,2.9762,2.9757,2.9823,2.9907,2.9987,3.0094,3.0179,3.036,3.0391,3.0491,3.0476,3.0604,3.0491,3.0494,3.0482,3.0476,3.0488,3.0627,3.063,3.0633,3.0636,0,2.9621,2.9621,2.9711,2.9803,2.9878,2.9951,3.0019,3.0073,3.0076,3.0153,3.0265,3.0331,3.0463,3.0571,3.0669,3.0706,3.0674,3.0671,3.0703,3.0711,3.0705,3.0712,3.0327,3.0662,3.066,3.0658,3.0656,3.0655,2.9832,2.9921,2.9982,3.0084,3.0134,3.0199,3.0286,3.0312,3.0405,3.0511,3.0502,3.0627,3.0693,3.0821,3.0866,3.0965,3.0922,3.0969,3.0982,3.0994,3.1007,3.0687,3.0982,3.0982,3.0981,3.098,3.098,0,3.0124,3.0161,3.0254,3.035,3.0431,3.039,3.0463,3.0535,3.0645,3.0708,3.0792,3.0923,3.1027,3.1067,3.117,3.1242,3.123,3.127,3.1265,3.1275,3.1038,3.1,3.1278,3.1278,3.1278,3.1278,3.1278,3.1278,3.0285,3.0434,3.0441,3.0616,3.0652,3.0773,3.0819,3.0879,3.093,3.1076,3.1163,3.1187,3.1242,3.1348,3.1443,3.1452,3.1493,3.154,3.1543,3.1322,3.1292,3.1263,3.1228,3.1548,3.1549,3.1772,3.1775,3.1776]},{"header":{"parameterUnit":"m.s-1","parameterCategory":1,"la1":30.2991,"la2":30.254,"lo1":-89.0895,"lo2":-89.0444,"dy":0.0017,"dx":0.0017,"nx":28,"ny":28,"refTime":"2025-04-10T09:00:00:Z","depth":0,"parameterNumber":3,"parameterNumberName":"V-component_of_WINDS"},"data":[0,0,0,0,0,0,0,0,0,0,0,0,0,0,0,0,0,0,0,0,0,0,0,0,0,0,0,0,0,0,0,0,0,0,0,0,0,0,0,0,0,0,0,0,0,0,0,0,0,0,0,0,0,0,0,0,0,0,-1.7413,-1.7414,0,-1.7461,-1.7461,-1.7462,-1.7484,-1.7484,-1.7484,-1.7484,-1.7529,-1.753,-1.7531,0,0,0,0,0,0,0,0,0,0,0,0,0,-1.7338,-1.7339,-1.7413,-1.7414,-1.7414,-1.7461,-1.7461,-1.7462,-1.7484,-1.7484,-1.7484,-1.7484,-1.7529,-1.753,-1.7531,0,0,0,0,0,0,0,0,0,0,0,0,0,-1.7376,-1.734,-1.7413,-1.7431,-1.7433,-1.746,-1.7461,-1.7462,-1.7484,-1.7484,-1.7484,-1.7484,-1.7528,-1.753,-1.7532,-1.7543,0,0,-1.7537,-1.7538,0,0,0,0,0,0,0,0,-1.7374,-1.7379,-1.7428,-1.743,-1.7432,-1.7467,-1.7451,-1.7489,-1.7484,-1.7465,-1.7484,-1.7484,-1.7508,-1.7511,-1.752,-1.7545,-1.7547,-1.7537,-1.7538,-1.7539,-1.754,0,0,0,0,0,0,0,-1.7372,-1.7377,-1.7432,-1.7429,-1.7431,-1.7436,-1.7441,-1.7458,-1.7486,-1.7466,-1.7468,-1.7474,-1.7509,-1.7518,-1.7521,-1.7548,-1.7537,-1.7539,-1.754,-1.7541,-1.7584,-1.7584,0,0,0,0,0,0,-1.7366,-1.7375,-1.743,-1.7433,-1.7403,-1.7437,-1.7443,-1.7456,-1.7486,-1.749,-1.7474,-1.7475,-1.7515,-1.7519,-1.7523,-1.7539,-1.7539,-1.7541,-1.7542,-1.7584,-1.7584,-1.7584,0,0,0,0,0,0,-1.7365,-1.7371,-1.7428,-1.7405,-1.7412,-1.7438,-1.7452,-1.7457,-1.7466,-1.7491,-1.7496,-1.7478,-1.7516,-1.7521,-1.7538,-1.754,-1.7542,-1.7543,-1.7584,-1.7584,-1.7584,-1.757,0,0,0,0,0,0,-1.7363,-1.7371,-1.7376,-1.7405,-1.7413,-1.7444,-1.7452,-1.7457,-1.7469,-1.7471,-1.7497,-1.7501,-1.7516,-1.7535,-1.754,-1.7543,-1.7545,-1.7584,-1.7584,-1.7584,-1.757,-1.7569,-1.7569,0,0,0,0,0,-1.736,-1.7369,-1.7376,-1.7383,-1.7421,-1.7444,-1.7449,-1.7467,-1.747,-1.7475,-1.7491,-1.75,-1.7539,-1.7537,-1.7542,-1.7546,-1.7584,-1.7584,-1.7584,-1.757,-1.7569,-1.7569,0,0,0,0,0,0,-1.7339,-1.7374,-1.7382,-1.7401,-1.742,-1.7448,-1.7455,-1.7465,-1.7483,-1.7483,-1.7503,-1.7509,-1.7525,-1.7537,-1.7534,-1.7558,-1.7562,-1.7564,-1.755,-1.7549,-1.7549,-1.7545,-1.7546,0,0,0,0,0,-1.7337,-1.7354,-1.7383,-1.7397,-1.7406,-1.7429,-1.7439,-1.7452,-1.7471,-1.7479,-1.7496,-1.7514,-1.753,-1.754,-1.7557,-1.7572,-1.7577,-1.7577,-1.7576,-1.7575,-1.7576,-1.7584,-1.7584,-1.7585,-1.7585,-1.7585,0,0,-1.7333,-1.7354,-1.7363,-1.7393,-1.7409,-1.7425,-1.7435,-1.7452,-1.7463,-1.7481,-1.7499,-1.7512,-1.7533,-1.7549,-1.7557,-1.756,-1.7577,-1.7575,-1.7575,-1.7576,-1.7585,-1.7584,-1.7584,-1.7585,-1.7585,-1.7585,0,0,-1.7333,-1.7351,-1.7365,-1.7381,-1.7405,-1.742,-1.7423,-1.745,-1.746,-1.7478,-1.7492,-1.7505,-1.7533,-1.7547,-1.7558,-1.7563,-1.7572,-1.7567,-1.7563,-1.7571,-1.7571,-1.7571,-1.7573,-1.7573,-1.7568,-1.7568,-1.7568,0,-1.7325,-1.7351,-1.737,-1.7386,-1.7399,-1.7416,-1.743,-1.7444,-1.7471,-1.7479,-1.7482,-1.7517,-1.7532,-1.7552,-1.7553,-1.7561,-1.7565,-1.7565,-1.757,-1.757,-1.7571,-1.7572,-1.7573,-1.7567,-1.7567,-1.7567,-1.7567,0,-1.7338,-1.7356,-1.7364,-1.7392,-1.7405,-1.7419,-1.744,-1.7451,-1.7462,-1.7476,-1.7494,-1.7513,-1.7533,-1.7539,-1.7549,-1.756,-1.7561,-1.7566,-1.7571,-1.757,-1.7572,-1.7572,-1.7566,-1.7567,-1.7567,-1.7567,0,0,-1.7328,-1.7366,-1.7369,-1.7381,-1.7409,-1.7422,-1.7437,-1.7458,-1.7467,-1.7485,-1.7497,-1.752,-1.7525,-1.7537,-1.7549,-1.7556,-1.7559,-1.7561,-1.7562,-1.756,-1.7571,-1.7567,-1.7567,-1.7565,-1.7565,-1.7565,-1.7569,0,-1.7332,-1.7361,-1.7379,-1.74,-1.7416,-1.7432,-1.7445,-1.7462,-1.7476,-1.749,-1.7504,-1.752,-1.7526,-1.7534,-1.7542,-1.7557,-1.7561,-1.7557,-1.7575,-1.7576,-1.757,-1.7569,-1.7564,-1.7568,-1.757,-1.757,-1.7571,0,-1.7341,-1.736,-1.7383,-1.7409,-1.7416,-1.7427,-1.7448,-1.7462,-1.7481,-1.749,-1.7504,-1.7516,-1.7531,-1.7534,-1.7554,-1.755,-1.7559,-1.7567,-1.7568,-1.757,-1.7573,-1.7571,-1.7569,-1.757,-1.7572,-1.7572,-1.7572,0,-1.7331,-1.7362,-1.738,-1.739,-1.742,-1.7428,-1.744,-1.746,-1.7472,-1.7489,-1.7496,-1.7514,-1.7524,-1.7538,-1.7554,-1.7554,-1.7572,-1.7576,-1.7579,-1.7579,-1.7583,-1.7582,-1.7582,-1.7588,-1.7588,-1.7588,-1.7588,0,-1.7334,-1.7347,-1.7376,-1.7387,-1.7402,-1.7421,-1.7435,-1.7449,-1.7466,-1.7479,-1.7494,-1.7505,-1.7526,-1.754,-1.7552,-1.7567,-1.7571,-1.7578,-1.7581,-1.7577,-1.7576,-1.7583,-1.7583,-1.7588,-1.7588,-1.7588,-1.7588,0,-1.7326,-1.7345,-1.7366,-1.7393,-1.74,-1.741,-1.7432,-1.7443,-1.7457,-1.7473,-1.7478,-1.75,-1.7516,-1.7534,-1.7556,-1.7564,-1.7578,-1.7583,-1.7572,-1.7574,-1.7576,-1.7576,-1.7581,-1.7582,-1.7586,-1.7586,-1.7586,0,-1.7327,-1.7337,-1.7366,-1.7376,-1.7389,-1.7405,-1.7417,-1.7436,-1.7448,-1.7471,-1.7478,-1.7496,-1.7512,-1.7538,-1.7555,-1.7571,-1.7576,-1.7577,-1.7579,-1.7574,-1.7576,-1.7576,-1.7577,-1.7576,-1.7576,-1.7576,-1.7576,0,-1.7326,-1.7335,-1.7352,-1.7373,-1.7387,-1.7404,-1.7421,-1.7428,-1.745,-1.7462,-1.748,-1.7492,-1.7515,-1.7533,-1.7552,-1.7563,-1.7573,-1.7575,-1.7577,-1.7572,-1.7566,-1.757,-1.757,-1.7575,-1.7575,-1.7575,-1.7575,-1.7575,-1.7322,-1.7333,-1.7354,-1.7373,-1.7388,-1.7403,-1.7415,-1.743,-1.7446,-1.7467,-1.7477,-1.7495,-1.7514,-1.754,-1.7552,-1.7565,-1.7568,-1.757,-1.7571,-1.7571,-1.757,-1.7564,-1.7568,-1.7568,-1.7568,-1.7568,-1.7569,0,-1.7323,-1.7337,-1.7354,-1.7378,-1.7392,-1.7401,-1.742,-1.7431,-1.7447,-1.7464,-1.7479,-1.75,-1.7516,-1.7535,-1.7552,-1.7559,-1.7564,-1.7563,-1.7563,-1.7566,-1.7566,-1.7563,-1.7559,-1.7559,-1.7559,-1.7559,-1.7559,-1.7559,-1.7324,-1.7342,-1.7354,-1.7379,-1.7393,-1.7412,-1.7422,-1.7436,-1.7449,-1.7472,-1.7486,-1.7498,-1.7516,-1.7535,-1.755,-1.7555,-1.756,-1.7558,-1.7564,-1.7565,-1.7566,-1.7566,-1.7563,-1.7559,-1.7559,-1.7562,-1.7562,-1.7563]}]]